Weather History for Florala, AL

Change the Weather History Date:

Saturday, January 19, 2013

  Actual Average (KCEW) Record (KCEW)
Temperature  
Mean Temperature 47 °F -  
Max Temperature 62 °F 59 °F 79 °F (1952)
Min Temperature 32 °F 37 °F 10 °F (1977)
Degree Days  
Heating Degree Days 18    
Moisture  
Dew Point 38 °F    
Average Humidity 70    
Maximum Humidity 92    
Minimum Humidity 47    
Precipitation  
Precipitation 0.00 in - - ()
Sea Level Pressure  
Sea Level Pressure 30.34 in    
Wind  
Wind Speed 2 mph (NE)    
Max Wind Speed 8 mph    
Max Gust Speed -    
Visibility 10 miles    
Events      
Averages and records for this station are not official NWS values.
T = Trace of Precipitation, MM = Missing Value Source: NWS Daily Summary

Daily Weather History Graph

Daily Weather History Graph

Search for Another Location

Airport:

Trip Planner

Search our weather history database for the weather conditions in past years. The results will help you decide how hot, cold, wet, or windy it might be!

Date:

Astronomy

Jan. 19, 2013 Rise Set
Actual Time 6:43 AM CST 5:09 PM CST
Civil Twilight 6:17 AM CST 5:35 PM CST
Nautical Twilight 5:47 AM CST 6:04 PM CST
Astronomical Twilight 5:18 AM CST 6:33 PM CST
Moon 11:30 AM CST (1/19) 12:22 AM CST (1/19)
Length of Visible Light 11h 18m
Length of Day
10h 26m
First Quarter, 57% of the Moon is Illuminated
Jan 19
First Quarter
Jan 26
Full
Feb 3
Last Quarter
Feb 10
New
Feb 17
First Quarter

Hourly Weather History & Observations

Time (CST) Temp. Windchill Dew Point Humidity Pressure Visibility Wind Dir Wind Speed Gust Speed Precip Events Conditions
12:58 AM 39.9 °F 36.7 °F 30.9 °F 70% 30.39 in - ENE 4.6 mph - N/A   Clear
1:58 AM 39.0 °F 36.8 °F 30.9 °F 73% 30.38 in - NE 3.5 mph - N/A   Clear
2:58 AM 39.0 °F 36.8 °F 30.9 °F 73% 30.39 in - North 3.5 mph - N/A   Clear
3:58 AM 32.0 °F - 30.0 °F 92% 30.39 in - Calm Calm - N/A   Clear
4:58 AM 33.1 °F - 30.0 °F 89% 30.38 in - Calm Calm - N/A   Clear
5:58 AM 35.1 °F - 30.9 °F 85% 30.40 in - Calm Calm - N/A   Clear
6:58 AM 33.1 °F - 30.0 °F 89% 30.41 in - Calm Calm - N/A   Scattered Clouds
7:58 AM 41.0 °F 35.8 °F 32.0 °F 70% 30.42 in - NNE 8.1 mph - N/A   Partly Cloudy
8:58 AM 46.0 °F 43.9 °F 33.1 °F 61% 30.44 in - NE 4.6 mph - N/A   Overcast
9:58 AM 48.9 °F - 33.1 °F 54% 30.43 in - ENE 4.6 mph - N/A   Overcast
10:58 AM 54.0 °F - 34.0 °F 47% 30.40 in - NE 5.8 mph - N/A   Overcast
11:58 AM 57.0 °F - 37.9 °F 49% 30.35 in 10.0 mi Calm Calm - N/A   Overcast
12:58 PM 60.1 °F - 39.9 °F 47% 30.32 in 10.0 mi Calm Calm - N/A   Mostly Cloudy
1:58 PM 62.1 °F - 42.1 °F 48% 30.29 in 10.0 mi ENE 4.6 mph - N/A   Overcast
2:58 PM 60.1 °F - 42.1 °F 51% 30.28 in 10.0 mi Calm Calm - N/A   Scattered Clouds
3:58 PM 60.1 °F - 43.0 °F 53% 30.27 in 10.0 mi Calm Calm - N/A   Overcast
4:58 PM 57.0 °F - 46.0 °F 67% 30.28 in 10.0 mi Calm Calm - N/A   Overcast
5:58 PM 55.9 °F - 48.0 °F 75% 30.28 in 10.0 mi Calm Calm - N/A   Overcast
6:58 PM 55.0 °F - 45.0 °F 69% 30.29 in 10.0 mi Calm Calm - N/A   Mostly Cloudy
7:58 PM 53.1 °F - 46.9 °F 80% 30.29 in 10.0 mi Calm Calm - N/A   Mostly Cloudy
8:58 PM 51.1 °F - 46.0 °F 83% 30.28 in 10.0 mi Calm Calm - N/A   Scattered Clouds
9:58 PM 48.0 °F - 44.1 °F 86% 30.27 in 10.0 mi Calm Calm - N/A   Partly Cloudy
10:58 PM 45.0 °F - 42.1 °F 90% 30.26 in 10.0 mi Calm Calm - N/A   Partly Cloudy